Monroe, WI

12:13 AM CDT on April 29, 2017 (GMT -0500)
Monroe Municipal

Weather History for KEFT - November, 2013

Change the Weather History Date:

Sunday, November 10, 2013

  Actual Average Record
Temperature  
Mean Temperature 39 °F -  
Max Temperature 46 °F 0 °F 66 °F (2010)
Min Temperature 32 °F - 21 °F (2008)
Degree Days  
Heating Degree Days 26    
Moisture  
Dew Point 29 °F    
Average Humidity 69    
Maximum Humidity 98    
Minimum Humidity 49    
Precipitation  
Precipitation 0.00 in - - ()
Sea Level Pressure  
Sea Level Pressure 30.23 in    
Wind  
Wind Speed 12 mph (WSW)    
Max Wind Speed 16 mph    
Max Gust Speed 20 mph    
Visibility 10 miles    
Events      
Averages and records for this station are not official NWS values.
T = Trace of Precipitation, MM = Missing Value Source: NWS Daily Summary

Daily Weather History Graph

Daily Weather History Graph

Search for Another Location

Airport or City:

Trip Planner

Search our weather history database for the weather conditions in past years. The results will help you decide how hot, cold, wet, or windy it might be!

Date:

Astronomy

Nov. 10, 2013 Rise Set
Actual Time 6:43 AM CST 4:40 PM CST
Civil Twilight 6:13 AM CST 5:10 PM CST
Nautical Twilight 5:39 AM CST 5:44 PM CST
Astronomical Twilight 5:06 AM CST 6:17 PM CST
Moon 12:54 PM CST (11/10) No Moon Set
Length of Visible Light 10h 56m
Length of Day
9h 56m
First Quarter, 56% of the Moon is Illuminated
Nov 10
First Quarter
Nov 17
Full
Nov 25
Last Quarter
Dec 2
New
Dec 9
First Quarter

Hourly Weather History & Observations

Time (CST) Temp. Windchill Dew Point Humidity Pressure Visibility Wind Dir Wind Speed Gust Speed Precip Events Conditions
12:15 AM 34.5 °F 24.5 °F 26.6 °F 73% 30.11 in 10.0 mi West 16.1 mph - N/A   Clear
12:35 AM 34.3 °F 24.2 °F 27.1 °F 75% 30.12 in 10.0 mi West 16.1 mph - N/A   Clear
12:55 AM 34.2 °F 24.0 °F 27.3 °F 76% 30.13 in 10.0 mi West 16.1 mph - N/A   Clear
1:15 AM 34.0 °F 24.2 °F 27.3 °F 77% 30.14 in 10.0 mi West 15.0 mph - N/A   Clear
1:35 AM 33.8 °F 25.3 °F 27.5 °F 78% 30.14 in 10.0 mi West 11.5 mph - N/A   Clear
1:55 AM 33.4 °F 24.3 °F 27.3 °F 78% 30.15 in 10.0 mi West 12.7 mph 18.4 mph N/A   Clear
2:15 AM 33.1 °F 24.9 °F 26.8 °F 78% 30.15 in 10.0 mi WNW 10.4 mph 16.1 mph N/A   Clear
2:35 AM 33.3 °F 25.1 °F 26.4 °F 76% 30.16 in 10.0 mi WNW 10.4 mph - N/A   Clear
2:55 AM 33.1 °F 24.9 °F 26.2 °F 76% 30.17 in 10.0 mi West 10.4 mph - N/A   Clear
3:15 AM 32.0 °F 23.0 °F 26.1 °F 79% 30.18 in 10.0 mi West 11.5 mph - N/A   Clear
3:35 AM 32.0 °F 22.5 °F 26.2 °F 79% 30.19 in 10.0 mi West 12.7 mph 17.3 mph N/A   Clear
3:55 AM 32.0 °F 22.1 °F 26.2 °F 79% 30.19 in 10.0 mi West 13.8 mph - N/A   Clear
4:15 AM 32.0 °F 23.0 °F 29.1 °F 89% 30.20 in 10.0 mi West 11.5 mph - N/A   Mostly Cloudy
4:35 AM 32.4 °F 23.5 °F 28.8 °F 87% 30.21 in 10.0 mi West 11.5 mph - N/A   Overcast
4:55 AM 32.5 °F 23.7 °F 29.5 °F 88% 30.22 in 10.0 mi West 11.5 mph - N/A   Overcast
5:15 AM 32.9 °F 24.7 °F 29.7 °F 88% 30.22 in 10.0 mi West 10.4 mph - N/A   Overcast
5:35 AM 33.3 °F 25.1 °F 30.4 °F 89% 30.23 in 10.0 mi West 10.4 mph - N/A   Overcast
5:55 AM 33.3 °F 25.1 °F 30.7 °F 90% 30.23 in 10.0 mi West 10.4 mph - N/A   Overcast
6:15 AM 33.1 °F 24.9 °F 31.1 °F 92% 30.24 in 10.0 mi West 10.4 mph - N/A   Overcast
6:35 AM 32.7 °F 24.5 °F 31.5 °F 95% 30.25 in 10.0 mi West 10.4 mph - N/A   Overcast
6:55 AM 32.0 °F 22.5 °F 31.5 °F 98% 30.26 in 10.0 mi West 12.7 mph - N/A   Mostly Cloudy
7:15 AM 32.4 °F 23.5 °F 31.6 °F 97% 30.27 in 10.0 mi West 11.5 mph - N/A   Mostly Cloudy
7:35 AM 32.5 °F 23.2 °F 32.0 °F 98% 30.28 in 10.0 mi WSW 12.7 mph - N/A   Mostly Cloudy
7:55 AM 33.3 °F 25.7 °F 32.0 °F 95% 30.29 in 10.0 mi West 9.2 mph - N/A   Scattered Clouds
8:15 AM 35.1 °F 27.9 °F 32.2 °F 89% 30.30 in 10.0 mi West 9.2 mph - N/A   Clear
8:35 AM 36.1 °F 28.7 °F 30.4 °F 80% 30.31 in 10.0 mi West 10.4 mph - N/A   Clear
8:55 AM 37.4 °F 30.8 °F 29.3 °F 73% 30.31 in 10.0 mi West 9.2 mph - N/A   Clear
9:15 AM 38.5 °F 31.6 °F 29.1 °F 69% 30.32 in 10.0 mi WNW 10.4 mph - N/A   Clear
9:35 AM 39.7 °F 33.2 °F 29.3 °F 66% 30.32 in 10.0 mi WNW 10.4 mph - N/A   Clear
9:55 AM 40.5 °F 34.6 °F 28.4 °F 62% 30.32 in 10.0 mi WNW 9.2 mph 12.7 mph N/A   Scattered Clouds
10:15 AM 41.4 °F 36.2 °F 28.4 °F 60% 30.32 in 10.0 mi NNW 8.1 mph - N/A   Scattered Clouds
10:35 AM 42.1 °F 36.1 °F 28.6 °F 59% 30.32 in 10.0 mi NW 10.4 mph - N/A   Clear
10:55 AM 42.4 °F 37.0 °F 28.2 °F 57% 30.32 in 10.0 mi NW 9.2 mph - N/A   Clear
11:15 AM 43.2 °F 39.7 °F 28.2 °F 56% 30.31 in 10.0 mi West 5.8 mph - N/A   Clear
11:35 AM 44.1 °F 40.1 °F 28.2 °F 54% 30.31 in 10.0 mi West 6.9 mph - N/A   Clear
11:55 AM 44.1 °F 39.0 °F 27.7 °F 53% 30.31 in 10.0 mi WSW 9.2 mph - N/A   Clear
12:15 PM 45.1 °F 40.8 °F 28.4 °F 52% 30.30 in 10.0 mi West 8.1 mph - N/A   Clear
12:35 PM 45.7 °F 42.0 °F 28.0 °F 50% 30.29 in 10.0 mi West 6.9 mph - N/A   Clear
12:55 PM 46.4 °F 42.4 °F 28.6 °F 50% 30.29 in 10.0 mi SW 8.1 mph - N/A   Clear
1:15 PM 46.0 °F 41.4 °F 28.2 °F 50% 30.28 in 10.0 mi SW 9.2 mph - N/A   Clear
1:35 PM 46.0 °F 40.6 °F 28.2 °F 50% 30.27 in 10.0 mi WSW 11.5 mph 19.6 mph N/A   Clear
1:55 PM 46.4 °F 41.5 °F 28.8 °F 50% 30.27 in 10.0 mi WSW 10.4 mph - N/A   Clear
2:15 PM 46.4 °F 41.1 °F 28.2 °F 49% 30.26 in 10.0 mi SW 11.5 mph - N/A   Clear
2:35 PM 45.9 °F 40.0 °F 28.2 °F 50% 30.26 in 10.0 mi WSW 12.7 mph 18.4 mph N/A   Clear
2:55 PM 46.0 °F 39.9 °F 28.2 °F 50% 30.26 in 10.0 mi WSW 13.8 mph - N/A   Clear
3:15 PM 46.4 °F 41.1 °F 28.6 °F 50% 30.26 in 10.0 mi SW 11.5 mph 17.3 mph N/A   Clear
3:35 PM 45.9 °F 40.4 °F 29.7 °F 53% 30.26 in 10.0 mi SSW 11.5 mph - N/A   Clear
3:55 PM 45.7 °F 39.8 °F 29.5 °F 53% 30.26 in 10.0 mi SW 12.7 mph - N/A   Clear
4:15 PM 43.9 °F 38.8 °F 28.8 °F 55% 30.26 in 10.0 mi SW 9.2 mph - N/A   Scattered Clouds
4:35 PM 42.1 °F 37.1 °F 29.1 °F 60% 30.25 in 10.0 mi SW 8.1 mph - N/A   Scattered Clouds
4:55 PM 43.0 °F 38.8 °F 28.9 °F 58% 30.24 in 10.0 mi SW 6.9 mph - N/A   Overcast
5:15 PM 43.2 °F 37.9 °F 29.5 °F 59% 30.24 in 10.0 mi SW 9.2 mph - N/A   Overcast
5:35 PM 43.0 °F 38.8 °F 29.7 °F 59% 30.24 in 10.0 mi SW 6.9 mph - N/A   Overcast
5:55 PM 43.0 °F 37.7 °F 29.8 °F 60% 30.24 in 10.0 mi SSW 9.2 mph - N/A   Overcast
6:15 PM 42.8 °F 36.6 °F 29.8 °F 60% 30.24 in 10.0 mi SW 11.5 mph - N/A   Overcast
6:35 PM 43.0 °F 36.8 °F 30.0 °F 60% 30.24 in 10.0 mi SW 11.5 mph - N/A   Overcast
6:55 PM 42.8 °F 36.6 °F 30.0 °F 61% 30.23 in 10.0 mi SW 11.5 mph - N/A   Overcast
7:15 PM 42.4 °F 36.5 °F 30.2 °F 62% 30.22 in 10.0 mi SW 10.4 mph 17.3 mph N/A   Overcast
7:35 PM 41.9 °F 36.3 °F 30.7 °F 65% 30.22 in 10.0 mi SW 9.2 mph - N/A   Overcast
7:55 PM 41.9 °F 35.9 °F 30.7 °F 65% 30.21 in 10.0 mi SW 10.4 mph - N/A   Overcast
8:15 PM 41.7 °F 34.8 °F 30.2 °F 64% 30.20 in 10.0 mi SW 12.7 mph - N/A   Overcast
8:35 PM 41.4 °F 34.7 °F 30.6 °F 65% 30.20 in 10.0 mi SW 11.5 mph - N/A   Overcast
8:55 PM 41.0 °F 33.9 °F 30.7 °F 67% 30.19 in 10.0 mi SW 12.7 mph - N/A   Overcast
9:15 PM 41.0 °F 34.3 °F 30.9 °F 67% 30.19 in 10.0 mi SW 11.5 mph - N/A   Overcast
9:35 PM 41.0 °F 34.3 °F 31.1 °F 68% 30.19 in 10.0 mi SW 11.5 mph 17.3 mph N/A   Overcast
9:55 PM 40.6 °F 33.8 °F 31.1 °F 69% 30.19 in 10.0 mi SW 11.5 mph - N/A   Overcast
10:15 PM 41.0 °F 34.3 °F 30.9 °F 67% 30.19 in 10.0 mi SW 11.5 mph - N/A   Overcast
10:35 PM 41.0 °F 34.3 °F 30.7 °F 67% 30.18 in 10.0 mi SW 11.5 mph - N/A   Overcast
10:55 PM 41.0 °F 33.5 °F 30.6 °F 66% 30.16 in 10.0 mi SSW 13.8 mph - N/A   Overcast
11:15 PM 40.6 °F 32.7 °F 30.7 °F 68% 30.15 in 10.0 mi SSW 15.0 mph - N/A   Overcast
11:35 PM 40.3 °F 31.9 °F 31.1 °F 70% 30.15 in 10.0 mi SSW 16.1 mph - N/A   Overcast
11:55 PM 40.5 °F 32.8 °F 31.1 °F 69% 30.14 in 10.0 mi SSW 13.8 mph - N/A   Overcast